Time,TemperatureF,DewpointF,PressureIn,WindDirection,WindDirectionDegrees,WindSpeedMPH,WindSpeedGustMPH,Humidity,HourlyPrecipIn,Conditions,Clouds,dailyrainin,SoftwareType,DateUTC
2013-03-03 00:01:00,56.0,35.0,30.06,WSW,249,0.0,1.0,45,0.00,,,0.00,,2013-03-03 08:01:00,
2013-03-03 00:11:00,56.0,35.0,30.06,WSW,249,0.0,1.0,45,0.00,,,0.00,,2013-03-03 08:11:00,
2013-03-03 00:21:00,56.0,36.0,30.05,WSW,249,0.0,1.0,46,0.00,,,0.00,,2013-03-03 08:21:00,
2013-03-03 00:31:00,55.0,35.0,30.06,WSW,249,0.0,0.0,46,0.00,,,0.00,,2013-03-03 08:31:00,
2013-03-03 00:41:00,55.0,35.0,30.06,WSW,249,0.0,0.0,46,0.00,,,0.00,,2013-03-03 08:41:00,
2013-03-03 00:53:00,55.0,35.0,30.06,WSW,249,0.0,0.0,47,0.00,,,0.00,,2013-03-03 08:53:00,
2013-03-03 01:01:00,55.0,36.0,30.06,WSW,249,0.0,0.0,48,0.00,,,0.00,,2013-03-03 09:01:00,
2013-03-03 01:11:00,55.0,36.0,30.06,WSW,249,0.0,0.0,48,0.00,,,0.00,,2013-03-03 09:11:00,
2013-03-03 01:21:00,56.0,37.0,30.06,WSW,248,0.0,0.0,48,0.00,,,0.00,,2013-03-03 09:21:00,
2013-03-03 01:32:00,56.0,36.0,30.05,WSW,249,0.0,0.0,47,0.00,,,0.00,,2013-03-03 09:32:00,
2013-03-03 01:41:00,56.0,36.0,30.05,WSW,249,0.0,0.0,47,0.00,,,0.00,,2013-03-03 09:41:00,
2013-03-03 01:51:00,57.0,36.0,30.04,WSW,249,0.0,1.0,45,0.00,,,0.00,,2013-03-03 09:51:00,
2013-03-03 02:01:00,57.0,35.0,30.04,WSW,249,0.0,1.0,43,0.00,,,0.00,,2013-03-03 10:01:00,
2013-03-03 02:11:00,57.0,35.0,30.04,WSW,249,0.0,1.0,43,0.00,,,0.00,,2013-03-03 10:11:00,
2013-03-03 02:21:00,57.0,35.0,30.04,WSW,249,0.0,0.0,44,0.00,,,0.00,,2013-03-03 10:21:00,
2013-03-03 02:31:00,58.0,37.0,30.05,SW,236,0.0,2.0,46,0.00,,,0.00,,2013-03-03 10:31:00,
2013-03-03 02:42:00,58.0,37.0,30.05,SW,236,0.0,2.0,46,0.00,,,0.00,,2013-03-03 10:42:00,
2013-03-03 02:51:00,58.0,36.0,30.05,SW,229,0.0,1.0,44,0.00,,,0.00,,2013-03-03 10:51:00,
2013-03-03 03:01:00,59.0,36.0,30.03,West,259,0.0,2.0,42,0.00,,,0.00,,2013-03-03 11:01:00,
2013-03-03 03:11:00,59.0,36.0,30.03,West,259,0.0,2.0,42,0.00,,,0.00,,2013-03-03 11:11:00,
2013-03-03 03:21:00,60.0,37.0,30.01,WSW,238,1.0,3.0,43,0.00,,,0.00,,2013-03-03 11:21:00,
2013-03-03 03:31:00,60.0,36.0,30.00,WSW,246,0.0,2.0,41,0.00,,,0.00,,2013-03-03 11:31:00,
2013-03-03 03:42:00,60.0,36.0,30.00,WSW,246,0.0,2.0,41,0.00,,,0.00,,2013-03-03 11:42:00,
2013-03-03 03:52:00,60.0,35.0,29.99,SSW,205,0.0,2.0,39,0.00,,,0.00,,2013-03-03 11:52:00,
2013-03-03 04:01:00,61.0,33.0,29.98,West,270,1.0,3.0,35,0.00,,,0.00,,2013-03-03 12:01:00,
2013-03-03 04:11:00,61.0,33.0,29.98,West,270,1.0,3.0,35,0.00,,,0.00,,2013-03-03 12:11:00,
2013-03-03 04:21:00,61.0,37.0,29.98,WNW,297,0.0,1.0,41,0.00,,,0.00,,2013-03-03 12:21:00,
2013-03-03 04:32:00,60.0,38.0,29.98,WSW,238,0.0,2.0,44,0.00,,,0.00,,2013-03-03 12:32:00,
2013-03-03 04:42:00,60.0,38.0,29.98,WSW,238,0.0,2.0,44,0.00,,,0.00,,2013-03-03 12:42:00,
2013-03-03 04:52:00,59.0,37.0,29.98,WSW,238,0.0,1.0,44,0.00,,,0.00,,2013-03-03 12:52:00,
2013-03-03 05:01:00,59.0,37.0,29.98,WSW,238,0.0,0.0,44,0.00,,,0.00,,2013-03-03 13:01:00,
2013-03-03 05:11:00,59.0,37.0,29.98,WSW,238,0.0,0.0,44,0.00,,,0.00,,2013-03-03 13:11:00,
2013-03-03 05:21:00,59.0,38.0,29.99,WSW,239,0.0,3.0,46,0.00,,,0.00,,2013-03-03 13:21:00,
2013-03-03 05:32:00,59.0,38.0,30.01,SW,229,0.0,2.0,46,0.00,,,0.00,,2013-03-03 13:32:00,
2013-03-03 05:41:00,59.0,38.0,30.01,SW,229,0.0,2.0,46,0.00,,,0.00,,2013-03-03 13:41:00,
2013-03-03 05:51:00,59.0,39.0,30.02,SW,229,0.0,1.0,47,0.00,,,0.00,,2013-03-03 13:51:00,
2013-03-03 06:01:00,59.0,39.0,30.03,SW,229,0.0,1.0,47,0.00,,,0.00,,2013-03-03 14:01:00,
2013-03-03 06:11:00,59.0,39.0,30.03,SW,229,0.0,1.0,47,0.00,,,0.00,,2013-03-03 14:11:00,
2013-03-03 06:21:00,59.0,39.0,30.03,SW,229,0.0,1.0,47,0.00,,,0.00,,2013-03-03 14:21:00,
2013-03-03 06:31:00,58.0,41.0,30.03,WSW,252,1.0,4.0,54,0.00,,,0.00,,2013-03-03 14:31:00,
2013-03-03 06:42:00,58.0,41.0,30.03,WSW,252,1.0,4.0,54,0.00,,,0.00,,2013-03-03 14:42:00,
2013-03-03 06:52:00,58.0,45.0,30.02,WSW,246,1.0,3.0,62,0.00,,,0.00,,2013-03-03 14:52:00,
2013-03-03 07:01:00,58.0,45.0,30.01,WSW,246,0.0,2.0,61,0.00,,,0.00,,2013-03-03 15:01:00,
2013-03-03 07:11:00,58.0,45.0,30.01,WSW,246,0.0,2.0,61,0.00,,,0.00,,2013-03-03 15:11:00,
2013-03-03 07:22:00,61.0,47.0,30.01,WSW,246,0.0,1.0,60,0.00,,,0.00,,2013-03-03 15:22:00,
2013-03-03 07:32:00,62.0,47.0,30.01,WSW,246,0.0,0.0,57,0.00,,,0.00,,2013-03-03 15:32:00,
2013-03-03 07:42:00,62.0,47.0,30.01,WSW,246,0.0,0.0,57,0.00,,,0.00,,2013-03-03 15:42:00,
2013-03-03 07:51:00,61.0,47.0,30.02,WSW,246,0.0,1.0,59,0.00,,,0.00,,2013-03-03 15:51:00,
2013-03-03 08:01:00,62.0,46.0,30.03,WSW,246,0.0,1.0,56,0.00,,,0.00,,2013-03-03 16:01:00,
2013-03-03 08:12:00,62.0,46.0,30.03,WSW,246,0.0,1.0,56,0.00,,,0.00,,2013-03-03 16:12:00,
2013-03-03 08:21:00,63.0,45.0,30.03,SW,236,0.0,2.0,51,0.00,,,0.00,,2013-03-03 16:21:00,
2013-03-03 08:31:00,63.0,45.0,30.03,SW,236,0.0,1.0,52,0.00,,,0.00,,2013-03-03 16:31:00,
2013-03-03 08:41:00,63.0,45.0,30.03,SW,236,0.0,1.0,52,0.00,,,0.00,,2013-03-03 16:41:00,
2013-03-03 08:51:00,63.0,44.0,30.02,SW,236,0.0,1.0,49,0.00,,,0.00,,2013-03-03 16:51:00,
2013-03-03 09:01:00,63.0,44.0,30.03,SW,236,0.0,1.0,50,0.00,,,0.00,,2013-03-03 17:01:00,
2013-03-03 09:11:00,64.0,45.0,30.04,SW,236,0.0,1.0,51,0.00,,,0.00,,2013-03-03 17:11:00,
2013-03-03 09:22:00,64.0,45.0,30.04,SW,236,0.0,1.0,51,0.00,,,0.00,,2013-03-03 17:22:00,
2013-03-03 09:32:00,64.0,46.0,30.04,SW,236,0.0,1.0,52,0.00,,,0.00,,2013-03-03 17:32:00,
2013-03-03 09:42:00,64.0,46.0,30.04,SW,236,0.0,1.0,52,0.00,,,0.00,,2013-03-03 17:42:00,
2013-03-03 09:52:00,64.0,49.0,30.03,WSW,248,0.0,2.0,58,0.00,,,0.00,,2013-03-03 17:52:00,
2013-03-03 10:01:00,64.0,50.0,30.03,SW,223,0.0,3.0,61,0.00,,,0.00,,2013-03-03 18:01:00,
2013-03-03 10:11:00,64.0,50.0,30.03,SW,223,0.0,3.0,61,0.00,,,0.00,,2013-03-03 18:11:00,
2013-03-03 10:21:00,64.0,51.0,30.03,WNW,294,0.0,2.0,63,0.00,,,0.00,,2013-03-03 18:21:00,
2013-03-03 10:31:00,64.0,51.0,30.03,SW,224,0.0,2.0,62,0.00,,,0.00,,2013-03-03 18:31:00,
2013-03-03 10:52:00,64.0,50.0,30.03,WSW,253,0.0,2.0,60,0.00,,,0.00,,2013-03-03 18:52:00,
2013-03-03 11:01:00,65.0,49.0,30.03,West,279,1.0,4.0,56,0.00,,,0.00,,2013-03-03 19:01:00,
2013-03-03 11:11:00,65.0,49.0,30.03,West,279,1.0,4.0,56,0.00,,,0.00,,2013-03-03 19:11:00,
2013-03-03 11:21:00,65.0,46.0,30.02,WSW,245,0.0,2.0,51,0.00,,,0.00,,2013-03-03 19:21:00,
2013-03-03 11:31:00,66.0,45.0,30.02,SSW,195,0.0,2.0,47,0.00,,,0.00,,2013-03-03 19:31:00,
2013-03-03 11:42:00,66.0,45.0,30.02,SSW,195,0.0,2.0,47,0.00,,,0.00,,2013-03-03 19:42:00,
2013-03-03 11:51:00,68.0,43.0,30.01,NNW,328,1.0,4.0,41,0.00,,,0.00,,2013-03-03 19:51:00,
2013-03-03 12:01:00,70.0,43.0,30.00,SE,142,0.0,4.0,37,0.00,,,0.00,,2013-03-03 20:01:00,
2013-03-03 12:11:00,70.0,43.0,30.00,SE,142,0.0,4.0,37,0.00,,,0.00,,2013-03-03 20:11:00,
2013-03-03 12:21:00,71.0,41.0,30.00,South,170,1.0,5.0,34,0.00,,,0.00,,2013-03-03 20:21:00,
2013-03-03 12:32:00,70.0,40.0,29.98,SSE,167,1.0,4.0,33,0.00,,,0.00,,2013-03-03 20:32:00,
2013-03-03 12:42:00,70.0,40.0,29.98,SSE,167,1.0,4.0,33,0.00,,,0.00,,2013-03-03 20:42:00,
2013-03-03 12:52:00,71.0,41.0,29.98,WSW,252,2.0,6.0,34,0.00,,,0.00,,2013-03-03 20:52:00,
2013-03-03 13:01:00,71.0,43.0,29.98,WSW,257,0.0,4.0,36,0.00,,,0.00,,2013-03-03 21:01:00,
2013-03-03 13:11:00,71.0,43.0,29.98,WSW,257,0.0,4.0,36,0.00,,,0.00,,2013-03-03 21:11:00,
2013-03-03 13:21:00,72.0,46.0,29.97,WNW,298,1.0,3.0,39,0.00,,,0.00,,2013-03-03 21:21:00,
2013-03-03 13:31:00,72.0,44.0,29.96,WNW,302,0.0,5.0,37,0.00,,,0.00,,2013-03-03 21:31:00,
2013-03-03 13:41:00,72.0,44.0,29.96,WNW,302,0.0,5.0,37,0.00,,,0.00,,2013-03-03 21:41:00,
2013-03-03 13:52:00,74.0,43.0,29.96,WNW,297,1.0,7.0,33,0.00,,,0.00,,2013-03-03 21:52:00,
2013-03-03 14:01:00,73.0,41.0,29.95,ESE,114,1.0,4.0,31,0.00,,,0.00,,2013-03-03 22:01:00,
2013-03-03 14:11:00,73.0,41.0,29.95,ESE,114,1.0,4.0,31,0.00,,,0.00,,2013-03-03 22:11:00,
2013-03-03 14:21:00,74.0,42.0,29.95,WSW,239,1.0,4.0,32,0.00,,,0.00,,2013-03-03 22:21:00,
2013-03-03 14:31:00,73.0,46.0,29.95,West,281,0.0,5.0,38,0.00,,,0.00,,2013-03-03 22:31:00,
2013-03-03 14:42:00,73.0,46.0,29.95,West,281,0.0,5.0,38,0.00,,,0.00,,2013-03-03 22:42:00,
2013-03-03 14:52:00,73.0,52.0,29.94,ESE,108,2.0,6.0,48,0.00,,,0.00,,2013-03-03 22:52:00,
2013-03-03 15:01:00,73.0,53.0,29.94,WSW,243,1.0,7.0,49,0.00,,,0.00,,2013-03-03 23:01:00,
2013-03-03 15:31:00,72.0,49.0,29.94,West,260,1.0,6.0,45,0.00,,,0.00,,2013-03-03 23:31:00,
2013-03-03 15:42:00,72.0,49.0,29.94,West,260,1.0,6.0,45,0.00,,,0.00,,2013-03-03 23:42:00,
2013-03-03 15:52:00,72.0,51.0,29.94,SSW,202,1.0,7.0,47,0.00,,,0.00,,2013-03-03 23:52:00,
2013-03-03 16:01:00,70.0,49.0,29.94,NE,51,2.0,5.0,48,0.00,,,0.00,,2013-03-04 00:01:00,
2013-03-03 16:11:00,70.0,49.0,29.94,NE,51,2.0,5.0,48,0.00,,,0.00,,2013-03-04 00:11:00,
2013-03-03 16:21:00,69.0,48.0,29.93,WNW,298,1.0,3.0,47,0.00,,,0.00,,2013-03-04 00:21:00,
2013-03-03 16:32:00,68.0,46.0,29.93,SSW,203,0.0,3.0,46,0.00,,,0.00,,2013-03-04 00:32:00,
2013-03-03 16:42:00,68.0,46.0,29.93,SSW,203,0.0,3.0,46,0.00,,,0.00,,2013-03-04 00:42:00,
2013-03-03 16:51:00,67.0,43.0,29.93,South,176,0.0,3.0,41,0.00,,,0.00,,2013-03-04 00:51:00,
2013-03-03 17:01:00,66.0,45.0,29.93,WSW,242,1.0,3.0,47,0.00,,,0.00,,2013-03-04 01:01:00,
2013-03-03 17:11:00,66.0,45.0,29.93,WSW,242,1.0,3.0,47,0.00,,,0.00,,2013-03-04 01:11:00,
2013-03-03 17:21:00,66.0,46.0,29.93,SW,236,1.0,5.0,49,0.00,,,0.00,,2013-03-04 01:21:00,
2013-03-03 17:31:00,66.0,47.0,29.94,SW,235,0.0,3.0,50,0.00,,,0.00,,2013-03-04 01:31:00,
2013-03-03 17:42:00,66.0,47.0,29.94,SW,235,0.0,3.0,50,0.00,,,0.00,,2013-03-04 01:42:00,
2013-03-03 17:51:00,64.0,45.0,29.95,WSW,243,0.0,4.0,51,0.00,,,0.00,,2013-03-04 01:51:00,
2013-03-03 18:01:00,63.0,47.0,29.95,East,96,0.0,3.0,55,0.00,,,0.00,,2013-03-04 02:01:00,
2013-03-03 18:11:00,63.0,47.0,29.95,East,96,0.0,3.0,55,0.00,,,0.00,,2013-03-04 02:11:00,
2013-03-03 18:22:00,62.0,49.0,29.95,ENE,65,0.0,4.0,63,0.00,,,0.00,,2013-03-04 02:22:00,
2013-03-03 18:31:00,60.0,49.0,29.95,East,96,0.0,4.0,67,0.00,,,0.00,,2013-03-04 02:31:00,
2013-03-03 18:41:00,60.0,49.0,29.95,East,96,0.0,4.0,67,0.00,,,0.00,,2013-03-04 02:41:00,
2013-03-03 18:52:00,60.0,50.0,29.96,SE,129,0.0,3.0,70,0.00,,,0.00,,2013-03-04 02:52:00,
2013-03-03 19:01:00,59.0,50.0,29.96,West,267,0.0,3.0,72,0.00,,,0.00,,2013-03-04 03:01:00,
2013-03-03 19:11:00,59.0,50.0,29.96,West,267,0.0,3.0,72,0.00,,,0.00,,2013-03-04 03:11:00,
2013-03-03 19:21:00,59.0,50.0,29.96,West,267,0.0,3.0,72,0.00,,,0.00,,2013-03-04 03:21:00,
2013-03-03 19:31:00,59.0,51.0,29.96,WSW,238,0.0,2.0,74,0.00,,,0.00,,2013-03-04 03:31:00,
2013-03-03 19:42:00,59.0,51.0,29.96,WSW,238,0.0,2.0,74,0.00,,,0.00,,2013-03-04 03:42:00,
2013-03-03 19:52:00,59.0,51.0,29.96,WSW,238,0.0,2.0,74,0.00,,,0.00,,2013-03-04 03:52:00,
2013-03-03 20:01:00,59.0,51.0,29.97,WSW,248,0.0,2.0,75,0.00,,,0.00,,2013-03-04 04:01:00,
2013-03-03 20:11:00,59.0,51.0,29.97,WSW,248,0.0,2.0,75,0.00,,,0.00,,2013-03-04 04:11:00,
2013-03-03 20:22:00,59.0,51.0,29.97,WSW,248,0.0,2.0,76,0.00,,,0.00,,2013-03-04 04:22:00,
2013-03-03 20:31:00,59.0,51.0,29.97,WSW,248,0.0,2.0,76,0.00,,,0.00,,2013-03-04 04:31:00,
2013-03-03 20:42:00,59.0,51.0,29.97,WSW,248,0.0,2.0,76,0.00,,,0.00,,2013-03-04 04:42:00,
2013-03-03 20:51:00,58.0,51.0,29.97,WSW,250,0.0,1.0,78,0.00,,,0.00,,2013-03-04 04:51:00,
2013-03-03 21:01:00,58.0,51.0,29.98,West,260,1.0,2.0,78,0.00,,,0.00,,2013-03-04 05:01:00,
2013-03-03 21:11:00,58.0,51.0,29.98,West,260,1.0,2.0,78,0.00,,,0.00,,2013-03-04 05:11:00,
2013-03-03 21:22:00,57.0,51.0,29.98,SW,235,1.0,3.0,80,0.00,,,0.00,,2013-03-04 05:22:00,
2013-03-03 21:31:00,57.0,52.0,29.98,West,260,1.0,3.0,82,0.00,,,0.00,,2013-03-04 05:31:00,
2013-03-03 21:42:00,57.0,52.0,29.98,West,260,1.0,3.0,82,0.00,,,0.00,,2013-03-04 05:42:00,
2013-03-03 21:52:00,57.0,52.0,29.98,WSW,248,0.0,3.0,82,0.00,,,0.00,,2013-03-04 05:52:00,
2013-03-03 22:01:00,57.0,52.0,29.98,WSW,248,0.0,2.0,83,0.00,,,0.00,,2013-03-04 06:01:00,
2013-03-03 22:11:00,57.0,52.0,29.98,WSW,248,0.0,2.0,83,0.00,,,0.00,,2013-03-04 06:11:00,
2013-03-03 22:21:00,56.0,51.0,29.98,WSW,243,0.0,3.0,83,0.00,,,0.00,,2013-03-04 06:21:00,
2013-03-03 22:31:00,56.0,51.0,29.98,WSW,246,0.0,3.0,82,0.00,,,0.00,,2013-03-04 06:31:00,
2013-03-03 22:42:00,56.0,51.0,29.98,WSW,246,0.0,3.0,82,0.00,,,0.00,,2013-03-04 06:42:00,
2013-03-03 22:51:00,56.0,51.0,29.98,WNW,283,0.0,1.0,84,0.00,,,0.00,,2013-03-04 06:51:00,
2013-03-03 23:01:00,56.0,52.0,29.98,WNW,283,0.0,1.0,86,0.00,,,0.00,,2013-03-04 07:01:00,
2013-03-03 23:11:00,56.0,52.0,29.98,WNW,283,0.0,1.0,86,0.00,,,0.00,,2013-03-04 07:11:00,
2013-03-03 23:21:00,56.0,52.0,29.98,WNW,283,0.0,1.0,86,0.00,,,0.00,,2013-03-04 07:21:00,
2013-03-03 23:32:00,56.0,52.0,29.98,West,277,0.0,1.0,86,0.00,,,0.00,,2013-03-04 07:32:00,
2013-03-03 23:42:00,56.0,52.0,29.98,West,277,0.0,1.0,86,0.00,,,0.00,,2013-03-04 07:42:00,
2013-03-03 23:52:00,56.0,52.0,29.97,West,277,0.0,1.0,85,0.00,,,0.00,,2013-03-04 07:52:00,